[Iaude] MPEC E176: 2024 EX3 [a=1.50,e=0.34,i=3.1,H=28.0]

mpec at cfa.harvard.edu mpec at cfa.harvard.edu
Wed Mar 13 17:06:59 EDT 2024


M.P.E.C. 2024-E176                               Issued 2024 March 13, 21:05 UT

     The Minor Planet Electronic Circulars contain information on unusual
         minor planets, routine data on comets and natural satellites,
         and occasional editorial announcements.  They are published
    on behalf of Division F of the International Astronomical Union by the
          Minor Planet Center, Smithsonian Astrophysical Observatory,
                          Cambridge, MA 02138, U.S.A.
			  
             Prepared using the Tamkin Foundation Computer Network

                              MPC at CFA.HARVARD.EDU
            URL https://www.minorplanetcenter.net/    ISSN 1523-6714

                                    2024 EX3                                    


Observations:
     K24E03X 1C2024 03 11.31408 09 08 12.92 +20 14 11.8          18.8 GVEE176703
     K24E03X 1C2024 03 11.31635 09 08 24.62 +20 14 24.6          19.2 GVEE176703
     K24E03X 1C2024 03 12.28627 10 38 18.21 +20 45 39.1          18.3 GVEE176703
     K24E03X 1C2024 03 12.28854 10 38 29.27 +20 45 29.6          18.7 GVEE176703
     K24E03X*1C2024 03 13.37291212 02 31.888+18 33 10.15         18.65GVEE176703
     K24E03X 1C2024 03 13.37522412 02 40.175+18 32 46.68         18.73GVEE176703
     K24E03X 1C2024 03 13.37753712 02 48.314+18 32 24.50         18.62GVEE176703
     K24E03X 1C2024 03 13.37986912 02 56.562+18 32 01.90         18.76GVEE176703
     K24E03X mC2024 03 13.42562212 05 38.839+18 24 07.99         18.58GVEE176I52
     K24E03X mC2024 03 13.42579212 05 39.451+18 24 06.44         18.78GVEE176I52
     K24E03X mC2024 03 13.42596412 05 40.045+18 24 04.61         18.47GVEE176I52
     K24E03X mC2024 03 13.42613412 05 40.643+18 24 03.13         18.48GVEE176I52
     K24E03X mC2024 03 13.50233512 10 09.858+18 10 19.49         18.63GVEE176I52
     K24E03X mC2024 03 13.50251212 10 10.477+18 10 17.36         18.26GVEE176I52
     K24E03X mC2024 03 13.50268212 10 11.082+18 10 15.49         18.25GVEE176I52
     K24E03X mC2024 03 13.50285212 10 11.712+18 10 14.27         18.36GVEE176I52
     K24E03X KC2024 03 13.53117912 12 51.226+18 24 48.24         18.7 GVEE176474
     K24E03X KC2024 03 13.53183712 12 53.477+18 24 42.41         18.3 GVEE176474
     K24E03X KC2024 03 13.53249412 12 55.730+18 24 34.16         18.3 GVEE176474
     K24E03X KC2024 03 13.53315212 12 57.946+18 24 28.76         18.8 GVEE176474
     K24E03X KB2024 03 13.53318 12 13 26.71 +18 05 23.7          18.4 GXEE176Q06
     K24E03X KC2024 03 13.53446812 13 02.438+18 24 16.96         18.8 GVEE176474
     K24E03X KB2024 03 13.53554 12 13 34.75 +18 05 03.0          18.5 GXEE176Q06
     K24E03X KB2024 03 13.53787 12 13 42.67 +18 04 41.7          18.6 GXEE176Q06
     K24E03X KC2024 03 13.58630812 16 25.44 +17 57 26.1          18.6 GVEE176900
     K24E03X KC2024 03 13.59391012 16 50.42 +17 56 15.0          18.2 GVEE176900
     K24E03X KC2024 03 13.60151212 17 15.30 +17 55 04.0          18.9 GVEE176900
     K24E03X pC2024 03 13.81007312 29 30.47 +17 16 16.7          18.8 GXEE176595
     K24E03X KC2024 03 13.81597912 29 49.26 +17 15 23.8          18.7 GXEE176595
     K24E03X KC2024 03 13.82199312 30 08.34 +17 14 30.3          18.4 GXEE176595
     K24E03X KC2024 03 13.85185612 31 47.72 +17 09 50.2          19.2 GXEE176958
     K24E03X KC2024 03 13.85476612 31 47.00 +17 08 41.9          18.2 GVEE176G34
     K24E03X KC2024 03 13.85770112 32 05.99 +17 08 58.2          18.8 GXEE176958
     K24E03X KC2024 03 13.85849112 31 58.50 +17 08 09.0          18.3 GVEE176G34
     K24E03X KC2024 03 13.86221812 32 09.94 +17 07 34.5          18.3 GVEE176G34
     K24E03X KC2024 03 13.86354812 32 24.10 +17 08 06.9          18.9 GXEE176958

Observer details:
474 Mount John Observatory, Lake Tekapo.  Observers A. C. Gilmore, P. M.
    Kilmartin.  Measurer P. M. Kilmartin.  1.0-m f/7.7 Reflector + CCD.
595 Farra d'Isonzo.  Observers G. Panterotto, E. Pettarin, A. Vodice.
    Measurer E. Pettarin.  0.61-m f/4.5 reflector + CCD.
703 Catalina Sky Survey.  Observers H. Groeller, V. F. Carvajal.  Measurers B.
    Gray, D. Rankin, F. C. Shelly, T. Beuden, V. F. Carvajal, D. Fay, J. B.
    Fazekas, D. C. Fuls, A. R. Gibbs, A. D. Grauer, H. Groeller, J. K. Hogan,
    R. A. Kowalski, S. M. Larson, G. J. Leonard, R. L. Seaman, K. W.
    Wierzchos.  0.68-m Schmidt + 10K CCD.
900 Moriyama.  Observer Y. Ikari.  0.26-m f/7.0 reflector + CMO.
958 Observatoire de Dax.  Observers P. Dupouy, J. B. de Vanssay.  Measurer P.
    Dupouy.  0.43-m f/2.7 Reflector + CCD.
G34 Oberfrauendorf.  Observer T. Felber.  0.35-m f/6.3 Schmidt-Cassegrain +
    CCD.
I52 Steward Observatory, Mt. Lemmon Station.  Observer G. J. Leonard.
    Measurers T. Beuden, V. F. Carvajal, D. Fay, J. B. Fazekas, D. C. Fuls, A.
    R. Gibbs, A. D. Grauer, H. Groeller, J. K. Hogan, R. A. Kowalski, S. M.
    Larson, G. J. Leonard, D. Rankin, R. L. Seaman, F. C. Shelly, K. W.
    Wierzchos.  1.0-m prime focus + CCD.
Q06 Tarui Observatory, Tarui.  Observer H. Watanabe.  0.35-m f/1.9 Schmidt-
    Cassegrain + CMO.

Orbital elements:
2024 EX3                                                 Earth MOID = 0.0048 AU
Epoch 2024 Mar. 31.0 TT = JDT 2460400.5                 Veres                   
M  17.75776              (2000.0)            P               Q                  
n   0.53396983     Peri.  345.01061     -0.90639654     -0.42232252             
a   1.5047288      Node   169.99244     +0.39294094     -0.85111403             
e   0.3416855      Incl.    3.11193     +0.15505718     -0.31184708             
P   1.85           H   28.02          G   0.15           U   6                  
Residuals in seconds of arc
240311 703  0.8-  0.7+    240313 I52  0.0   0.2-    240313 900  0.1+  0.2+
240311 703  0.7+  0.3-    240313 I52  0.2-  0.3-    240313 900  0.2+  0.2-
240312 703 (2.5+  0.5+)   240313 I52  0.1-  0.3-    240313 900  0.5+  0.1+
240312 703  0.2+  0.9-    240313 I52  0.3+  0.3+    240313 595  1.4-  0.7+
240313 703  0.0   0.1-    240313 474  0.7-  0.1-    240313 595  1.1-  0.1-
240313 703  0.7+  0.4-    240313 474  0.3-  0.5+    240313 595  0.2-  0.4-
240313 703  0.6-  0.7+    240313 474  0.2+  1.3-    240313 958  0.1+  0.4+
240313 703  1.3-  1.6+    240313 474  0.1+  0.2-    240313 G34  0.2-  0.3-
240313 I52  0.1+  0.4-    240313 Q06  0.4+  0.2+    240313 958  0.5+  0.2-
240313 I52  0.3+  0.1-    240313 474  0.7+  0.9+    240313 G34  0.4+  0.5+
240313 I52  0.1+  0.2-    240313 Q06  0.1+  0.4+    240313 G34  0.4+  0.3-
240313 I52  0.0   0.2+    240313 Q06  0.4-  0.2-    240313 958  0.1-  0.0

Ephemeris:
2024 EX3                 a,e,i = 1.50, 0.34, 3                   q = 0.9906
Date    TT    R. A. (2000) Decl.     Delta      r    Elong.  Phase     V
2024 02 12    04 05 38.7 -00 25 09   0.08170 0.9993    96.3    79.0    25.3
...
2024 02 27    04 27 39.5 +01 41 18   0.04093 0.9895    88.0    89.7    24.2
...
2024 03 06    05 20 25.3 +06 36 51   0.01862 0.9936    94.0    84.9    22.3
...
2024 03 12    10 12 17.3 +20 58 40   0.0079031.0008   154.3    25.5    18.7
2024 03 13    11 36 49.3 +19 34 10   0.0087491.0023   163.3    16.5    18.6
2024 03 14    12 38 47.7 +16 54 04   0.01041 1.0039   159.0    20.8    19.1
...
2024 03 20    14 41 39.0 +07 51 33   0.02598 1.0155   138.6    40.4    21.7
...
2024 03 28    15 10 32.6 +04 48 39   0.04947 1.0357   138.5    39.7    23.1
...
2024 04 12    15 15 52.8 +02 46 37   0.09621 1.0864   149.5    28.0    24.4

M. P. C. Staff               (C) Copyright 2024 MPC           M.P.E.C. 2024-E176





More information about the Iaude mailing list